Location: Laterina
(43.5167°N, 11.7167°E)
Time: 08:17:13
(UTC+00:00)

Cosmos 2026 Rocket - Pass Details

Date: 24 January 2021
Orbit: 940 x 1000 km, 82.9° (Epoch: 08 March)

Event Time Altitude Azimuth Distance (km) Brightness Sun altitude
Rises 05:50:44 0° 346° (NNW) 3,715 6.7 -8.6°
Reaches altitude 10° 05:53:21 10° 340° (NNW) 2,768 6.0 -8.2°
Maximum altitude 05:59:19 44° 271° (W) 1,355 4.4 -7.1°
Drops below altitude 10° 06:05:16 10° 201° (SSW) 2,763 6.4 -6.1°
Sets 06:07:54 0° 195° (SSW) 3,707 7.1 -5.7°
